Tracking 32938 objects as of 12-Jan-2026
HD Live streaming from Space Station
objects crossing your sky now

FLOCK 4Q 20

Track FLOCK 4Q 20 now!
10-day predictions
FLOCK 4Q 20 is classified as:


NORAD ID: 58313
Int'l Code: 2023-174BK
Perigee: 409.9 km
Apogee: 418.5 km
Inclination: 97.4 °
Period: 92.7 minutes
Semi major axis: 6785 km
RCS: Unknown
Launch date: November 11, 2023
Source: United States (US)
Launch site: AIR FORCE WESTERN TEST RANGE (AFWTR)
Your satellite tracking list
Your tracking list is empty




NASA's NSSDC Master Catalog

Two Line Element Set (TLE):
1 58313U 23174BK  26012.19171229  .00044726  00000-0  70740-3 0  9994
2 58313  97.4026 102.4575 0006281 339.3425  20.7573 15.53312834121777
Source of the keplerian elements: AFSPC